Regional Weather Roundup
Issued by NWS

Home | Current Version | Previous Version | Graphics & Text | Print | Product List | Glossary On
Versions: 1 2 3 4 5 6 7 8 9 10 11 12 13 14 15 16 17 18 19 20 21 22 23 24 25 26 27 28 29 30 31 32 33 34 35 36 37 38 39 40 41 42 43 44 45 46 47 48 49 50
000
ASUS43 KMKX 290121
RWRWI

WISCONSIN REGIONAL WEATHER ROUNDUP
NATIONAL WEATHER SERVICE MILWAUKEE/SULLIVAN WI
800 PM CDT WED SEP 28 2016

NOTE: "FAIR" INDICATES FEW OR NO CLOUDS BELOW 12,000 FEET WITH NO
SIGNIFICANT WEATHER AND/OR OBSTRUCTIONS TO VISIBILITY.

WIZ001-002-006>008-014>016-023>028-290200-
NORTHWEST WISCONSIN

CITY           SKY/WX    TMP DP  RH WIND       PRES   REMARKS
SUPERIOR ARPT  CLOUDY    53  50  90 NE3       30.36R
ASHLAND        CLOUDY    54  51  90 NE6       30.35R
HAYWARD        CLOUDY    54  48  80 N12       30.34R
SIREN          CLOUDY    56  48  76 NE3       30.35R
CUMBERLAND     CLOUDY    54  46  76 N8        30.32R
RICE LAKE      CLOUDY    56  48  76 N9        30.33R
CHETEK         NOT AVBL
LADYSMITH      PTCLDY    53  51  92 N12       30.32R
EAU CLAIRE     PTCLDY    57  51  80 N9        30.27R
MENOMONIE      CLOUDY    58  50  73 N14       30.28R
NEW RICHMOND   CLOUDY    56  48  75 N9        30.31S
OSCEOLA        CLOUDY    57  49  76 N6        30.35R
$$

WIZ003>005-009-010-017-018-290200-
NORTH CENTRAL WISCONSIN

CITY           SKY/WX    TMP DP  RH WIND       PRES   REMARKS
MANITOWISH WTR NOT AVBL
ARBOR VITAE    CLEAR     52  50  94 N5        30.30R
WOODRUFF       CLEAR     52  50  94 N5        30.30R
RHINELANDER    CLEAR     53  52  96 N3        30.29R
EAGLE RIVER    CLOUDY    52  51  97 CALM      30.30R
LAND O LAKES   CLOUDY    53  49  87 NE10      30.32R
PHILLIPS       CLOUDY    53  53  99 N8        30.29R
TOMAHAWK       PTCLDY    53  49  87 N3        30.28R
MEDFORD        MOCLDY    51  51 100 N6        30.26R
MERRILL        PTCLDY    54  50  87 NE3       30.27R
$$

WIZ029-030-035-036-043>047-290200-
CENTRAL WISCONSIN

CITY           SKY/WX    TMP DP  RH WIND       PRES   REMARKS
WAUSAU         CLEAR     53  48  83 N3        30.24R
MOSINEE        CLEAR     54  48  82 N6        30.25R
MARSHFIELD     CLEAR     56  47  71 NE5       30.23R
STEVENS POINT  CLEAR     52  47  83 CALM      30.24R
WAUPACA        CLEAR     54  51  88 N3        30.22R
WAUTOMA        CLEAR     54  50  86 NE5       30.22R
WISC RAPIDS    CLEAR     52  49  89 NE6       30.24R
CAMP DOUGLAS   CLEAR     48  47  96 W2        30.22R
$$

WIZ011>013-019>022-031-037>040-048>050-290200-
NORTHEAST WISCONSIN

CITY           SKY/WX    TMP DP  RH WIND       PRES   REMARKS
ANTIGO         CLEAR     50  48  92 CALM      30.26R
SHAWANO        PTCLDY    56  51  81 N3        30.24R
OCONTO         NOT AVBL
STURGEON BAY   CLEAR     56  53  90 N8        30.22R
GREEN BAY      CLEAR     57  55  93 N12       30.21R
MANITOWOC      CLEAR     58  53  84 MISG      30.18R
APPLETON       PTCLDY    54  48  82 N9        30.19R
CLINTONVILLE   CLEAR     52  48  87 CALM      30.23R
OSHKOSH        CLEAR     59  53  80 N13       30.19R
$$

WIZ032>034-041-042-053>061-290200-
SOUTHWEST WISCONSIN

CITY           SKY/WX    TMP DP  RH WIND       PRES   REMARKS
LA CROSSE      PTCLDY    58  51  78 N5        30.22R
SPARTA         PTCLDY    54  53  96 CALM      30.23R
VIROQUA        CLOUDY    53  50  89 N3        30.22R
BOSCOBEL       CLEAR     55  51  86 NE3       30.20R
PRAIRIE DU CHI CLEAR     59  49  71 N7        30.19S
PLATTEVILLE    CLEAR     55  52  87 N7        30.19R
$$

WIZ056-057-062-063-064-067-068-290200-
SOUTH CENTRAL WISCONSIN

CITY           SKY/WX    TMP DP  RH WIND       PRES   REMARKS
REEDSBURG      NOT AVBL
BARABOO/DELLS  CLEAR     54  48  81 CALM      30.20R
LONE ROCK      CLEAR     55  49  80 CALM      30.20R
MINERAL POINT  CLEAR     54  52  94 N7        30.19R
MADISON        CLEAR     54  50  86 N7        30.18R
MIDDLETON      CLEAR     55  51  88 N6        30.19R
WATERTOWN      CLEAR     55  49  81 N7        30.16R
MONROE         CLEAR     54  50  87 N10       30.15R
JANESVILLE     PTCLDY    59  48  67 N8        30.13R
$$

WIZ051-052-058>065-066-070>072-290200-
SOUTHEAST WISCONSIN

CITY           SKY/WX    TMP DP  RH WIND       PRES   REMARKS
MILWAUKEE      MOCLDY    61  51  70 N18G29    30.11R
WAUKESHA       PTCLDY    55  48  76 N9        30.15R
MILWAUKEE/TIMM MOCLDY    57  48  72 N12       30.14R
RACINE         LGT RAIN  58  51  78 N21G29    30.12S
BURLINGTON     MOCLDY    54  46  74 N6        30.13R
KENOSHA        CLOUDY    56  52  86 NW7       30.11S
FOND DU LAC    CLEAR     58  49  72 NE13      30.19R
SHEBOYGAN      CLEAR     57  51  80 N10       30.16R
WEST BEND      MOCLDY    55  50  82 N7        30.15S
JUNEAU         CLEAR     54  48  79 N7        30.19R
$$

LSZ147-162-290200-
LAKE SUPERIOR

STATION/POSITION TIME  TEMP    WIND        PRES    WAVE
                       AIR SEA DIR/SP/G            HT/PER
                 (UTC) (F)     (DEG/KT/KT) (MB)    (FT/S)
W MID LAKE BUOY  0050   55 54   50/  6/  6 1027.2R   2/ 6
DEVILS ISLAND    0100   55      50/  6/  6 1028.2R
SAXON HARBOR     0000   56      30/ 10/ 14 1026.4
$$

LMZ867-665-643>646-290200-
LAKE MICHIGAN

STATION/POSITION TIME  TEMP    WIND        PRES    WAVE
                       AIR SEA DIR/SP/G            HT/PER
                 (UTC) (F)     (DEG/KT/KT) (MB)    (FT/S)
CHAMBERS ISLAND  0000   63      30/ 13/ 15 1022.0R
S GREEN BAY BUOY 0100   62 62   50/ 14/ 16 1022.5
N MID LAKE BUOY  0050   64 66   20/ 17/ 19 1022.3R   3/ 4
NORTHPORT PIER   0000   62      30/  7/ 10 1022.7R
SISTER BAY       0008   59      30/  5/  7   N/A
KEWAUNEE LAKESHO 0000   58     360/  7/ 12 1021.2R
SHEBOYGAN LAKESH 0100   58     350/ 17/ 18 1020.8R
PORT WASHINGTON  0040   60     360/  6/ 15 1021.0R
ATWATER BUOY     0100   57 54  360/ 17/ 21 1019.4R
MILWAUKEE LAKESH 0110   60     350/ 17/ 22   N/A
S MID LAKE BUOY  0050   65 69   60/ 25/ 31 1016.6R   5/ 5
KENOSHA   LAKESH 0100   58      10/ 15/ 21 1019.3R
$$

TC  - TEMPERATURE IN CELSIUS
VSB - VISIBILITY IN STATUTE MILES
WCI - WIND CHILL INDEX
HX  - HEAT INDEX




USA.gov is the U.S. government's official web portal to all federal, state and local government web resources and services.